DW6536 Weather Reports


Display with metric or nautical units.
time (UTC)temp
F
wind
direction
speed
MPH
gust
MPH
rain 1hr
in
rain 24hr
in
rain mn
in
humidity
%
barometer
mb
20260507184546 62 74 2.0 0.0 0.00 0.00 0.00 73 1015.7
20260507183041 62 64 2.0 0.0 0.00 0.00 0.00 72 1016.2
20260507181538 62 62 2.0 0.0 0.00 0.00 0.00 72 1016.2
20260507180040 63 85 2.0 0.0 0.00 0.00 0.00 73 1016.3
20260507174539 63 29 2.0 0.0 0.00 0.00 0.00 73 1016.6
20260507173134 61 14 3.0 0.0 0.00 0.00 0.00 78 1016.9
20260507171551 59 15 1.0 0.0 0.00 0.00 0.00 80 1016.5
20260507170059 59 52 2.0 0.0 0.00 0.00 0.00 80 1015.9
20260507164559 58 338 2.0 0.0 0.00 0.00 0.00 82 1017.1
20260507163049 58 45 2.0 0.0 0.00 0.00 0.00 82 1017.0
20260507161548 58 26 1.0 0.0 0.00 0.00 0.00 79 1018.2
20260507160046 58 34 2.0 0.0 0.00 0.00 0.00 80 1017.6
20260507154551 58 49 2.0 0.0 0.00 0.00 0.00 81 1017.5
20260507153045 58 358 2.0 0.0 0.00 0.00 0.00 82 1017.6
20260507151545 58 49 1.0 0.0 0.00 0.00 0.00 82 1017.3
20260507150043 58 49 2.0 0.0 0.00 0.00 0.00 83 1017.5
20260507144543 58 4 2.0 0.0 0.00 0.00 0.00 83 1017.8
20260507143040 57 16 2.0 0.0 0.00 0.00 0.00 85 1017.0
20260507141542 57 358 2.0 0.0 0.00 0.00 0.00 86 1017.0
20260507140038 57 349 3.0 0.0 0.00 0.00 0.00 86 1017.0
20260507134539 57 23 1.0 0.0 0.00 0.00 0.00 87 1016.6
20260507133052 57 13 3.0 0.0 0.00 0.00 0.00 87 1016.5
20260507131545 56 343 3.0 0.0 0.00 0.00 0.00 87 1016.5
20260507130045 56 12 3.0 0.0 0.00 0.00 0.00 87 1016.6
20260507124533 57 18 3.0 0.0 0.00 0.00 0.00 87 1016.3
20260507123032 57 343 2.0 0.0 0.00 0.00 0.00 87 1016.5
20260507121531 57 294 3.0 0.0 0.00 0.00 0.00 87 1016.4
20260507120028 57 29 2.0 0.0 0.00 0.00 0.00 87 1015.5
20260507114526 57 6 2.0 0.0 0.00 0.00 0.00 87 1015.2
20260507113025 57 47 2.0 0.0 0.00 0.00 0.00 86 1015.4
20260507111525 57 31 3.0 0.0 0.00 0.00 0.00 86 1015.6
20260507110024 57 353 2.0 0.0 0.00 0.00 0.00 86 1015.4
20260507104522 57 33 3.0 0.0 0.00 0.00 0.00 85 1015.4
20260507103021 57 356 3.0 0.0 0.00 0.00 0.00 86 1015.2
20260507101521 57 24 3.0 0.0 0.00 0.00 0.00 86 1015.0
20260507100019 58 54 2.0 0.0 0.00 0.00 0.00 85 1014.9
20260507094518 58 69 2.0 0.0 0.00 0.00 0.00 85 1015.2
20260507093016 58 37 2.0 0.0 0.00 0.00 0.00 85 1014.7
20260507091520 58 17 1.0 0.0 0.00 0.00 0.00 85 1014.8
20260507090021 58 12 1.0 0.0 0.00 0.00 0.00 85 1014.1
20260507084512 58 58 1.0 0.0 0.00 0.00 0.00 84 1014.0
20260507083011 58 35 1.0 0.0 0.00 0.00 0.00 84 1013.8
20260507081508 58 40 1.0 0.0 0.00 0.00 0.00 84 1014.3
20260507080006 59 37 1.0 0.0 0.00 0.00 0.00 83 1013.8
20260507074505 59 53 2.0 0.0 0.00 0.00 0.00 83 1013.4
20260507073003 59 112 1.0 0.0 0.00 0.00 0.00 82 1013.6
20260507071502 59 74 2.0 0.0 0.00 0.00 0.00 82 1013.3
20260507070002 59 46 2.0 0.0 0.00 0.00 0.00 81 1013.4
20260507064603 59 25 1.0 0.0 0.00 0.00 0.00 81 1013.4
20260507063106 60 30 1.0 0.0 0.00 0.00 0.00 80 1013.2
20260507061558 60 36 2.0 0.0 0.00 0.00 0.00 80 1013.3
20260507060057 60 44 1.0 0.0 0.00 0.00 0.00 80 1013.7
20260507054554 60 62 2.0 0.0 0.00 0.00 0.00 80 1013.4
20260507053054 60 58 2.0 0.0 0.00 0.00 0.00 81 1013.1
20260507051554 60 26 2.0 0.0 0.00 0.00 0.00 80 1013.2
20260507050051 60 53 2.0 0.0 0.00 0.00 0.00 80 1013.4
20260507044550 61 31 2.0 0.0 0.00 0.00 0.00 80 1013.1
20260507043049 61 343 2.0 0.0 0.00 0.00 0.00 80 1013.3
20260507041551 61 37 2.0 0.0 0.00 0.00 0.00 80 1013.2
20260507040053 61 32 2.0 0.0 0.00 0.00 0.00 81 1013.4
20260507034551 61 22 1.0 0.0 0.00 0.00 0.00 82 1013.3
20260507033050 61 26 2.0 0.0 0.00 0.00 0.00 82 1013.1
20260507031545 60 37 1.0 0.0 0.00 0.00 0.00 82 1013.1
20260507030044 61 321 1.0 0.0 0.00 0.00 0.00 82 1012.6
20260507024543 61 37 2.0 0.0 0.00 0.00 0.00 81 1012.9
20260507023048 61 37 1.0 0.0 0.00 0.00 0.00 81 1012.6
20260507021545 61 27 2.0 0.0 0.00 0.00 0.00 81 1012.1
20260507020058 61 20 1.0 0.0 0.00 0.00 0.00 81 1012.3
20260507014536 61 347 2.0 0.0 0.00 0.00 0.00 81 1011.8
20260507013047 61 6 1.0 0.0 0.00 0.00 0.00 81 1011.6
20260507011534 61 47 2.0 0.0 0.00 0.00 0.00 80 1011.0
20260507010036 61 16 2.0 0.0 0.00 0.00 0.00 80 1011.1
20260507004536 62 22 2.0 0.0 0.00 0.00 0.00 80 1010.8
20260507003041 62 17 2.0 0.0 0.00 0.00 0.00 80 1010.7
20260507001537 61 353 2.0 0.0 0.00 0.00 0.00 80 1010.7
20260507000035 62 338 1.0 0.0 0.00 0.00 0.00 80 1010.7
20260506234536 62 4 1.0 0.0 0.00 0.00 0.00 80 1010.8
20260506233031 62 58 2.0 0.0 0.00 0.00 0.00 80 1010.2
20260506231530 62 314 2.0 0.0 0.00 0.00 0.00 80 1010.3
20260506230029 62 48 2.0 0.0 0.00 0.00 0.00 79 1010.2
20260506224533 61 4 2.0 0.0 0.00 0.00 0.00 81 1010.4
20260506223040 61 30 2.0 0.0 0.00 0.00 0.00 80 1010.3
20260506221528 61 338 3.0 0.0 0.00 0.00 0.00 80 1010.1
20260506220028 61 7 3.0 0.0 0.00 0.00 0.00 79 1010.3
20260506214537 62 303 3.0 0.0 0.00 0.00 0.00 79 1009.9
20260506213026 62 8 3.0 0.0 0.00 0.00 0.00 78 1009.9
20260506211526 62 53 3.0 0.0 0.00 0.00 0.00 78 1010.2
20260506210027 63 351 3.0 0.0 0.00 0.00 0.00 78 1010.3
20260506204526 63 77 3.0 0.0 0.00 0.00 0.00 77 1010.4
20260506203024 63 355 3.0 0.0 0.00 0.00 0.00 77 1010.4
20260506201524 65 6 3.0 0.0 0.00 0.00 0.00 76 1010.2
20260506200023 65 351 3.0 0.0 0.00 0.00 0.00 75 1010.1
20260506194522 66 289 3.0 0.0 0.00 0.00 0.00 76 1010.0
20260506193021 67 46 3.0 0.0 0.00 0.00 0.00 76 1009.9
20260506191521 68 42 3.0 0.0 0.00 0.00 0.00 77 1010.0
20260506190020 71 279 3.0 0.0 0.00 0.00 0.00 74 1010.0